Cloud_Cover
0 0 0 0 0 0 0 0 0 0 1 1 12 89 60 66 14 5 0 0 0 0 5 2 0 0 0 0 0 0 0 2 2 17 19 100 100 100 98 77 30 100 71 100
0 0 0 0 0 0 0 0 0 0 0 0 2 5 37 94 4 5 0 0 0 0 5 5 10 40 28 0 0 0 0 0 0 2 5 5 60 100 100 100 100 100 100 100
0 0 0 0 0 0 0 0 0 0 0 0 0 3 5 33 3 3 0 0 0 0 14 5 11 94 95 2 0 0 0 0 0 1 6 6 95 100 100 100 80 79 37 46
0 0 0 0 0 0 0 0 0 0 0 0 0 0 0 0 0 0 0 1 0 0 56 18 17 87 55 27 13 1 0 0 0 0 0 10 6 100 99 100 81 100 99 100
0 0 0 0 0 0 0 0 4 0 0 0 0 0 0 0 0 0 0 0 0 0 4 5 4 2 5 7 0 0 0 0 10 0 0 0 22 99 100 100 46 100 72 100
0 5 2 0 0 0 0 0 0 5 3 3 40 0 0 0 0 0 0 0 0 4 4 5 25 45 92 1 0 0 0 6 16 0 0 1 27 94 100 100 94 75 100 100
1 33 4 0 0 0 3 2 2 5 5 87 100 0 5 0 0 0 0 0 0 0 56 8 5 100 31 5 2 40 0 17 42 17 6 83 90 67 28 26 45 75 100 100
5 6 64 4 0 0 86 100 89 5 71 100 71 3 5 5 0 0 0 0 0 0 0 2 5 5 2 0 12 0 0 0 0 1 13 76 100 100 100 5 100 10 86 100
18 0 74 69 34 30 40 86 8 43 79 83 49 34 7 5 5 0 0 0 0 2 14 9 2 0 3 29 0 0 0 0 0 0 18 95 100 100 100 64 51 100 93 100
100 60 100 100 96 100 100 34 100 2 5 33 39 95 82 5 5 2 0 2 2 100 71 25 12 11 42 10 0 0 0 1 16 0 9 61 5 79 100 67 11 63 41 99
73 3 100 100 96 47 100 31 100 48 40 6 100 100 48 5 5 31 85 96 80 37 3 3 21 100 100 5 5 1 0 0 0 0 0 0 4 99 100 100 99 80 42 8
66 10 95 100 100 78 100 80 100 100 6 7 82 72 56 14 5 5 7 5 5 100 95 9 65 100 100 95 6 1 0 0 0 0 0 0 4 57 74 100 100 100 100 100
46 82 71 100 100 100 100 100 28 39 52 45 76 96 69 53 80 100 100 74 15 20 85 100 100 81 100 74 13 5 0 0 0 0 0 0 0 93 100 100 100 100 100 100
99 100 100 100 100 100 100 72 100 100 69 59 55 98 5 5 21 12 34 89 100 100 100 100 100 100 97 93 89 6 0 0 0 0 0 0 0 53 95 100 99 100 100 99
10 26 76 100 100 100 96 100 100 100 100 18 30 33 27 3 2 1 1 4 12 24 100 100 100 100 100 100 96 1 0 0 0 0 0 0 0 0 100 100 94 99 22 18
100 100 66 100 100 100 100 100 100 100 68 5 5 4 0 4 5 0 4 47 71 99 100 98 100 100 100 100 54 3 0 2 2 0 0 0 0 0 16 100 100 100 25 12
100 100 100 100 100 100 100 100 100 100 60 73 100 75 87 100 51 58 4 0 2 10 100 100 100 100 100 5 5 7 3 79 0 1 0 1 1 2 6 99 100 100 100 95
100 100 89 100 100 100 100 100 100 100 100 100 100 100 87 100 100 100 100 98 98 100 100 100 100 100 100 99 100 100 8 15 4 11 32 100 100 100 96 100 100 100 100 100
100 100 100 99 100 100 100 100 100 100 78 100 100 99 100 100 100 100 100 100 100 100 100 100 100 100 100 100 100 19 25 64 73 50 97 6 100 100 100 100 100 100 100 100
98 99 100 97 100 100 98 74 10 68 50 100 88 100 100 100 100 100 100 100 100 100 100 100 98 81 100 100 67 73 20 34 14 27 100 100 100 100 100 100 100 100 100 100
73 29 3 73 100 100 36 58 14 100 100 100 100 100 100 100 100 100 100 100 99 97 100 99 34 74 100 14 24 5 45 32 40 59 100 100 100 100 100 100 100 100 100 100
92 87 100 90 79 6 4 52 36 100 100 100 100 100 100 100 100 100 100 100 100 100 100 100 100 100 95 53 6 17 7 0 5 80 100 100 100 71 97 100 100 100 100 45
100 100 100 52 96 69 100 100 100 100 100 100 100 100 100 100 100 100 100 100 100 100 100 100 100 100 94 99 24 81 43 49 34 87 100 100 100 100 100 100 100 37 96 100
99 71 100 44 5 100 100 100 100 100 100 100 100 100 100 100 100 100 100 100 100 100 85 100 100 100 100 100 100 21 25 43 47 100 100 100 100 39 100 100 100 100 100 100
100 99 45 4 82 100 100 100 100 100 100 100 100 100 100 100 100 100 100 11 100 100 100 100 100 100 100 100 100 39 5 5 90 100 100 98 100 93 100 100 100 100 100 100
100 100 100 72 35 100 100 100 100 100 100 100 100 100 100 100 100 100 100 100 99 100 100 99 100 100 100 95 29 29 1 2 5 100 94 77 100 100 100 100 100 100 100 100